Delta Virtual Airport Information Service

San Francisco International Airport

ICAO: KSFO Country: United States
Latitude: 37.619 Longitude: -122.374
Latest Arrival : SWA1307 (B) (KPHX-KSFO) Latest Departure : SWA1204 (A) (KSFO-KLAS)


WX CaptureLIVE
Data provided by noaa.gov | Fetched at 19:18:51

METAR : KSFO 172256Z 32011KT 10SM FEW004 SCT150 BKN200 23/13 A2987 RMK AO2 SLP115 T02280133

TAF : KSFO 172256Z 32011KT 10SM FEW004 SCT150 BKN200 23/13 A2987 RMK AO2 SLP115 T02280133


Runway Data for KSFO
Data provided by openaviationdata.com

Runway ID Mag Var Hdg Length Elevation Surface ILS Freq ILS Id ILS Slope
01L 15 12° 7506 ft 13 ft Asphalt -- -- --
01R 15 12° 8654 ft 13 ft Asphalt -- -- --
10L 15 102° 11861 ft 13 ft Asphalt -- -- --
10R 15 102° 10594 ft 13 ft Asphalt -- -- --
19L 15 192° 8654 ft 13 ft Asphalt 108.9 ISIA 2
19R 15 192° 7506 ft 13 ft Asphalt -- -- --
28L 15 282° 10594 ft 13 ft Asphalt 109.55 ISFO 3
28R 15 282° 11861 ft 13 ft Asphalt 111.7 IGWQ 3

San Francisco International Airport, United States
Use only for reference purposes



Not for navigational purposes.